| time (UTC) | temp F | wind direction | speed MPH | gust MPH | rain 1hr in | rain 24hr in | rain mn in | humidity % | barometer mb |
| 20260506163526 | 55 | 12 | 5.0 | 8.0 | 0.00 | 0.34 | 0.04 | 76 | 1030.9 |
| 20260506163031 | 55 | 344 | 5.0 | 7.0 | 0.00 | 0.34 | 0.04 | 76 | 1031.0 |
| 20260506162534 | 54 | 216 | 1.0 | 3.0 | 0.00 | 0.34 | 0.04 | 79 | 1032.2 |
| 20260506162034 | 54 | 218 | 2.0 | 3.0 | 0.00 | 0.34 | 0.04 | 80 | 1032.8 |
| 20260506161607 | 54 | 218 | 2.0 | 4.0 | 0.00 | 0.34 | 0.04 | 81 | 1033.8 |
| 20260506161025 | 53 | 357 | 4.0 | 7.0 | 0.00 | 0.34 | 0.04 | 81 | 1033.4 |
| 20260506160525 | 53 | 12 | 5.0 | 7.0 | 0.00 | 0.34 | 0.04 | 80 | 1032.9 |
| 20260506160025 | 53 | 349 | 4.0 | 6.0 | 0.00 | 0.34 | 0.04 | 81 | 1033.5 |
| 20260506155525 | 53 | 352 | 5.0 | 6.0 | 0.00 | 0.34 | 0.04 | 80 | 1032.0 |
| 20260506155025 | 53 | 21 | 4.0 | 5.0 | 0.00 | 0.34 | 0.04 | 83 | 1037.5 |
| 20260506154520 | 52 | 33 | 3.0 | 5.0 | 0.00 | 0.34 | 0.04 | 87 | 1040.8 |
| 20260506154020 | 52 | 20 | 3.0 | 4.0 | 0.00 | 0.34 | 0.04 | 88 | 1040.8 |
| 20260506153520 | 51 | 14 | 3.0 | 4.0 | 0.00 | 0.34 | 0.04 | 89 | 1041.4 |
| 20260506153020 | 51 | 14 | 2.0 | 4.0 | 0.00 | 0.34 | 0.04 | 88 | 1041.1 |
| 20260506152520 | 51 | 296 | 2.0 | 3.0 | 0.00 | 0.34 | 0.04 | 89 | 1041.8 |
| 20260506152035 | 51 | 314 | 3.0 | 3.0 | 0.00 | 0.34 | 0.04 | 90 | 1042.2 |
| 20260506151535 | 51 | 357 | 3.0 | 3.0 | 0.00 | 0.34 | 0.04 | 90 | 1042.3 |
| 20260506151035 | 51 | 299 | 2.0 | 3.0 | 0.00 | 0.34 | 0.04 | 91 | 1041.5 |
| 20260506150536 | 51 | 291 | 2.0 | 3.0 | 0.00 | 0.34 | 0.04 | 92 | 1040.7 |
| 20260506150036 | 51 | 10 | 2.0 | 3.0 | 0.00 | 0.34 | 0.04 | 93 | 1039.8 |
| 20260506145558 | 51 | 6 | 2.0 | 3.0 | 0.00 | 0.34 | 0.04 | 92 | 1039.7 |
| 20260506145036 | 50 | 17 | 2.0 | 3.0 | 0.00 | 0.34 | 0.04 | 93 | 1041.6 |
| 20260506144520 | 50 | 203 | 2.0 | 3.0 | 0.00 | 0.34 | 0.04 | 93 | 1044.6 |
| 20260506144021 | 50 | 24 | 2.0 | 4.0 | 0.00 | 0.34 | 0.04 | 95 | 1044.3 |
| 20260506143522 | 49 | 322 | 3.0 | 3.0 | 0.00 | 0.34 | 0.04 | 94 | 1042.9 |
| 20260506143022 | 49 | 25 | 2.0 | 3.0 | 0.00 | 0.34 | 0.04 | 95 | 1041.6 |
| 20260506142521 | 49 | 5 | 3.0 | 4.0 | 0.00 | 0.34 | 0.04 | 95 | 1040.9 |
| 20260506142021 | 49 | 12 | 3.0 | 4.0 | 0.00 | 0.34 | 0.04 | 96 | 1040.6 |
| 20260506141522 | 49 | 14 | 2.0 | 3.0 | 0.00 | 0.34 | 0.04 | 96 | 1040.3 |
| 20260506141022 | 49 | 356 | 2.0 | 3.0 | 0.00 | 0.34 | 0.04 | 96 | 1040.1 |
| 20260506140521 | 49 | 13 | 2.0 | 4.0 | 0.00 | 0.34 | 0.04 | 96 | 1039.9 |
| 20260506140022 | 48 | 30 | 2.0 | 3.0 | 0.00 | 0.34 | 0.04 | 95 | 1039.9 |
| 20260506135521 | 48 | 29 | 2.0 | 3.0 | 0.00 | 0.34 | 0.04 | 95 | 1039.8 |
| 20260506135044 | 48 | 18 | 2.0 | 3.0 | 0.00 | 0.34 | 0.04 | 95 | 1039.8 |
| 20260506134542 | 48 | 35 | 2.0 | 3.0 | 0.00 | 0.34 | 0.04 | 95 | 1039.7 |
| 20260506134024 | 48 | 28 | 2.0 | 4.0 | 0.00 | 0.34 | 0.04 | 95 | 1039.7 |
| 20260506133523 | 48 | 21 | 2.0 | 3.0 | 0.00 | 0.34 | 0.04 | 95 | 1039.7 |
| 20260506133023 | 48 | 24 | 2.0 | 3.0 | 0.00 | 0.34 | 0.04 | 95 | 1039.7 |
| 20260506132522 | 47 | 10 | 2.0 | 3.0 | 0.00 | 0.34 | 0.04 | 95 | 1039.6 |
| 20260506132022 | 47 | 11 | 2.0 | 3.0 | 0.00 | 0.34 | 0.04 | 95 | 1039.6 |
| 20260506131524 | 47 | 3 | 3.0 | 3.0 | 0.00 | 0.34 | 0.04 | 95 | 1039.5 |
| 20260506131022 | 47 | 357 | 2.0 | 3.0 | 0.00 | 0.34 | 0.04 | 95 | 1039.5 |
| 20260506130543 | 47 | 241 | 1.0 | 3.0 | 0.00 | 0.35 | 0.04 | 95 | 1039.4 |
| 20260506130044 | 47 | 331 | 2.0 | 3.0 | 0.00 | 0.37 | 0.04 | 95 | 1039.3 |
| 20260506125543 | 47 | 23 | 2.0 | 3.0 | 0.00 | 0.38 | 0.04 | 95 | 1039.3 |
| 20260506125023 | 47 | 222 | 1.0 | 3.0 | 0.00 | 0.39 | 0.04 | 95 | 1039.2 |
| 20260506124522 | 47 | 337 | 2.0 | 3.0 | 0.00 | 0.39 | 0.04 | 95 | 1039.2 |
| 20260506124024 | 47 | 18 | 2.0 | 3.0 | 0.00 | 0.40 | 0.04 | 95 | 1039.3 |
| 20260506123523 | 47 | 227 | 1.0 | 3.0 | 0.00 | 0.41 | 0.04 | 95 | 1039.3 |
| 20260506123023 | 47 | 212 | 1.0 | 2.0 | 0.00 | 0.43 | 0.04 | 95 | 1039.4 |
| 20260506122524 | 46 | 215 | 1.0 | 3.0 | 0.00 | 0.43 | 0.04 | 95 | 1039.3 |
| 20260506122024 | 46 | 204 | 1.0 | 3.0 | 0.00 | 0.43 | 0.04 | 95 | 1039.3 |
| 20260506121523 | 46 | 275 | 3.0 | 4.0 | 0.00 | 0.43 | 0.04 | 95 | 1039.3 |
| 20260506121023 | 46 | 249 | 2.0 | 3.0 | 0.00 | 0.43 | 0.04 | 95 | 1039.2 |
| 20260506120523 | 46 | 296 | 3.0 | 4.0 | 0.00 | 0.43 | 0.04 | 95 | 1039.2 |
| 20260506120024 | 46 | 303 | 3.0 | 3.0 | 0.00 | 0.43 | 0.04 | 95 | 1039.2 |
| 20260506115526 | 46 | 269 | 2.0 | 3.0 | 0.00 | 0.45 | 0.04 | 95 | 1039.3 |
| 20260506115025 | 46 | 301 | 3.0 | 4.0 | 0.00 | 0.49 | 0.04 | 95 | 1039.2 |
| 20260506114544 | 46 | 242 | 3.0 | 3.0 | 0.00 | 0.49 | 0.04 | 95 | 1039.5 |
| 20260506114024 | 46 | 234 | 2.0 | 3.0 | 0.00 | 0.54 | 0.04 | 95 | 1039.5 |
| 20260506113525 | 46 | 228 | 2.0 | 3.0 | 0.00 | 0.59 | 0.04 | 95 | 1039.4 |
| 20260506113025 | 46 | 242 | 3.0 | 4.0 | 0.00 | 0.59 | 0.04 | 95 | 1039.4 |
| 20260506112545 | 46 | 222 | 2.0 | 3.0 | 0.00 | 0.59 | 0.04 | 95 | 1039.3 |
| 20260506112024 | 46 | 231 | 2.0 | 3.0 | 0.00 | 0.59 | 0.04 | 95 | 1039.1 |
| 20260506111524 | 46 | 244 | 2.0 | 3.0 | 0.00 | 0.59 | 0.04 | 95 | 1039.2 |
| 20260506111026 | 46 | 228 | 2.0 | 3.0 | 0.00 | 0.59 | 0.04 | 95 | 1039.0 |
| 20260506110524 | 46 | 226 | 2.0 | 3.0 | 0.00 | 0.59 | 0.04 | 95 | 1038.8 |
| 20260506110024 | 46 | 228 | 2.0 | 3.0 | 0.00 | 0.59 | 0.04 | 95 | 1038.7 |
| 20260506105545 | 46 | 235 | 3.0 | 3.0 | 0.00 | 0.59 | 0.04 | 95 | 1038.8 |
| 20260506105025 | 46 | 236 | 3.0 | 4.0 | 0.00 | 0.59 | 0.04 | 95 | 1038.6 |
| 20260506104525 | 46 | 243 | 3.0 | 4.0 | 0.00 | 0.59 | 0.04 | 95 | 1038.3 |
| 20260506104028 | 46 | 240 | 3.0 | 3.0 | 0.00 | 0.59 | 0.04 | 95 | 1038.3 |
| 20260506103526 | 46 | 227 | 2.0 | 3.0 | 0.00 | 0.59 | 0.04 | 95 | 1038.3 |
| 20260506103046 | 46 | 237 | 3.0 | 4.0 | 0.00 | 0.59 | 0.04 | 95 | 1038.4 |
| 20260506102525 | 46 | 241 | 3.0 | 4.0 | 0.00 | 0.59 | 0.04 | 95 | 1038.6 |
| 20260506102126 | 46 | 232 | 3.0 | 4.0 | 0.00 | 0.59 | 0.04 | 95 | 1038.6 |
| 20260506101526 | 46 | 240 | 4.0 | 4.0 | 0.00 | 0.59 | 0.04 | 95 | 1038.5 |
| 20260506101046 | 46 | 229 | 2.0 | 4.0 | 0.00 | 0.60 | 0.04 | 95 | 1038.5 |
| 20260506100526 | 46 | 241 | 4.0 | 4.0 | 0.00 | 0.60 | 0.04 | 95 | 1038.6 |
| 20260506100025 | 46 | 255 | 4.0 | 4.0 | 0.00 | 0.60 | 0.04 | 95 | 1038.5 |
| 20260506095527 | 46 | 275 | 4.0 | 4.0 | 0.00 | 0.60 | 0.04 | 95 | 1038.6 |
| 20260506095025 | 46 | 288 | 4.0 | 4.0 | 0.00 | 0.60 | 0.04 | 95 | 1038.6 |
| 20260506094527 | 46 | 280 | 4.0 | 4.0 | 0.00 | 0.68 | 0.04 | 95 | 1038.5 |
| 20260506094046 | 46 | 246 | 4.0 | 4.0 | 0.00 | 0.69 | 0.04 | 95 | 1038.7 |
| 20260506093546 | 46 | 249 | 4.0 | 4.0 | 0.00 | 0.70 | 0.04 | 95 | 1038.7 |
| 20260506093027 | 46 | 247 | 4.0 | 4.0 | 0.00 | 0.70 | 0.04 | 95 | 1038.8 |
| 20260506092548 | 46 | 237 | 4.0 | 4.0 | 0.00 | 0.70 | 0.04 | 95 | 1038.9 |
| 20260506092026 | 46 | 248 | 4.0 | 5.0 | 0.00 | 0.70 | 0.04 | 95 | 1039.0 |
| 20260506091527 | 46 | 229 | 3.0 | 5.0 | 0.00 | 0.70 | 0.04 | 95 | 1039.3 |
| 20260506091026 | 46 | 228 | 4.0 | 5.0 | 0.00 | 0.70 | 0.04 | 95 | 1039.4 |
| 20260506090527 | 46 | 222 | 2.0 | 2.0 | 0.00 | 0.70 | 0.04 | 95 | 1039.5 |
| 20260506090027 | 46 | 225 | 2.0 | 2.0 | 0.00 | 0.70 | 0.04 | 95 | 1039.7 |
| 20260506085527 | 46 | 224 | 1.0 | 2.0 | 0.00 | 0.70 | 0.04 | 95 | 1039.6 |
| 20260506085030 | 46 | 225 | 1.0 | 2.0 | 0.00 | 0.70 | 0.04 | 95 | 1039.5 |
| 20260506084547 | 46 | 224 | 1.0 | 3.0 | 0.00 | 0.70 | 0.04 | 95 | 1039.5 |
| 20260506084028 | 46 | 236 | 2.0 | 4.0 | 0.00 | 0.70 | 0.04 | 95 | 1039.4 |
| 20260506083527 | 46 | 275 | 2.0 | 4.0 | 0.00 | 0.70 | 0.04 | 95 | 1039.6 |
| 20260506083028 | 46 | 245 | 2.0 | 3.0 | 0.00 | 0.70 | 0.04 | 95 | 1039.7 |
| 20260506082528 | 46 | 281 | 1.0 | 2.0 | 0.00 | 0.70 | 0.04 | 95 | 1039.7 |
| 20260506082027 | 46 | 298 | 1.0 | 1.0 | 0.00 | 0.70 | 0.04 | 95 | 1039.8 |
| 20260506081548 | 46 | 349 | 1.0 | 3.0 | 0.00 | 0.70 | 0.04 | 95 | 1039.9 |
| 20260506081028 | 46 | 13 | 2.0 | 4.0 | 0.00 | 0.71 | 0.04 | 95 | 1040.0 |
| 20260506080528 | 46 | 13 | 2.0 | 4.0 | 0.00 | 0.71 | 0.04 | 95 | 1040.1 |
| 20260506073029 | 46 | 85 | 1.0 | 3.0 | 0.01 | 0.71 | 0.04 | 95 | 1040.4 |
| 20260506072529 | 46 | 321 | 1.0 | 2.0 | 0.02 | 0.71 | 0.04 | 95 | 1040.7 |
| 20260506072029 | 46 | 187 | 1.0 | 1.0 | 0.02 | 0.71 | 0.04 | 95 | 1041.0 |
| 20260506071529 | 46 | 133 | 1.0 | 2.0 | 0.02 | 0.71 | 0.04 | 95 | 1041.2 |
| 20260506071048 | 46 | 124 | 1.0 | 3.0 | 0.02 | 0.71 | 0.04 | 95 | 1041.5 |
| 20260506070529 | 46 | 161 | 1.0 | 1.0 | 0.02 | 0.71 | 0.04 | 95 | 1041.7 |
| 20260506062029 | 46 | 199 | 1.0 | 1.0 | 0.02 | 0.70 | 0.03 | 95 | 1042.6 |
| 20260506061531 | 46 | 151 | 1.0 | 2.0 | 0.02 | 0.70 | 0.02 | 95 | 1042.6 |
| 20260506061049 | 46 | 231 | 1.0 | 3.0 | 0.02 | 0.69 | 0.02 | 95 | 1042.8 |
| 20260506060531 | 46 | 191 | 1.0 | 1.0 | 0.01 | 0.69 | 0.02 | 95 | 1042.9 |
| 20260506051030 | 46 | 184 | 0.0 | 1.0 | 0.02 | 0.68 | 0.00 | 95 | 1043.8 |
| 20260506050530 | 46 | 132 | 1.0 | 2.0 | 0.02 | 0.68 | 0.00 | 95 | 1044.1 |
| 20260506045031 | 46 | 295 | 0.0 | 1.0 | 0.01 | 0.67 | 0.67 | 95 | 1044.4 |
| 20260506044552 | 46 | 289 | 0.0 | 1.0 | 0.01 | 0.67 | 0.67 | 95 | 1044.6 |
| 20260506044033 | 46 | 244 | 1.0 | 2.0 | 0.01 | 0.66 | 0.66 | 95 | 1044.7 |
| 20260506043531 | 46 | 239 | 1.0 | 4.0 | 0.01 | 0.66 | 0.66 | 95 | 1044.9 |
| 20260506043031 | 46 | 221 | 1.0 | 2.0 | 0.01 | 0.66 | 0.66 | 95 | 1045.2 |
| 20260506042531 | 46 | 217 | 0.0 | 2.0 | 0.01 | 0.66 | 0.66 | 95 | 1045.6 |
| 20260506042031 | 46 | 219 | 1.0 | 3.0 | 0.01 | 0.66 | 0.66 | 95 | 1045.8 |
| 20260506041552 | 46 | 226 | 1.0 | 2.0 | 0.01 | 0.66 | 0.66 | 95 | 1045.8 |
| 20260506041032 | 46 | 244 | 1.0 | 3.0 | 0.01 | 0.66 | 0.66 | 95 | 1045.9 |
| 20260506040531 | 46 | 345 | 2.0 | 2.0 | 0.01 | 0.66 | 0.66 | 95 | 1045.9 |
| 20260506040033 | 46 | 340 | 1.0 | 2.0 | 0.00 | 0.66 | 0.66 | 95 | 1046.1 |
| 20260506035532 | 46 | 319 | 2.0 | 2.0 | 0.00 | 0.65 | 0.65 | 95 | 1046.0 |
| 20260506035035 | 45 | 309 | 3.0 | 5.0 | 0.00 | 0.65 | 0.65 | 95 | 1046.2 |
| 20260506034533 | 45 | 290 | 3.0 | 5.0 | 0.00 | 0.65 | 0.65 | 95 | 1046.1 |
| 20260506034027 | 45 | 232 | 3.0 | 5.0 | 0.00 | 0.65 | 0.65 | 95 | 1046.2 |
| 20260506033532 | 45 | 234 | 2.0 | 4.0 | 0.00 | 0.65 | 0.65 | 95 | 1046.3 |
| 20260506033053 | 45 | 232 | 1.0 | 4.0 | 0.00 | 0.65 | 0.65 | 95 | 1046.2 |
| 20260506032533 | 45 | 275 | 0.0 | 1.0 | 0.00 | 0.65 | 0.65 | 95 | 1045.8 |
| 20260506032054 | 45 | 293 | 1.0 | 2.0 | 0.00 | 0.65 | 0.65 | 95 | 1045.7 |
| 20260506031533 | 45 | 294 | 0.0 | 1.0 | 0.00 | 0.65 | 0.65 | 95 | 1045.7 |
| 20260506031032 | 45 | 313 | 0.0 | 1.0 | 0.00 | 0.65 | 0.65 | 95 | 1045.7 |
| 20260506030534 | 45 | 331 | 0.0 | 1.0 | 0.01 | 0.65 | 0.65 | 95 | 1045.5 |
| 20260506030032 | 45 | 305 | 0.0 | 1.0 | 0.01 | 0.65 | 0.65 | 95 | 1045.3 |
| 20260506025533 | 45 | 109 | 1.0 | 1.0 | 0.01 | 0.65 | 0.65 | 95 | 1044.9 |
| 20260506025034 | 45 | 210 | 1.0 | 2.0 | 0.02 | 0.65 | 0.65 | 95 | 1044.8 |
| 20260506024533 | 45 | 275 | 1.0 | 2.0 | 0.03 | 0.65 | 0.65 | 95 | 1044.5 |
| 20260506024035 | 45 | 228 | 1.0 | 2.0 | 0.04 | 0.65 | 0.65 | 95 | 1044.3 |
| 20260506023533 | 45 | 18 | 2.0 | 3.0 | 0.04 | 0.65 | 0.65 | 95 | 1044.3 |
| 20260506023034 | 45 | 21 | 2.0 | 4.0 | 0.04 | 0.65 | 0.65 | 95 | 1044.0 |
| 20260506022533 | 45 | 31 | 4.0 | 4.0 | 0.05 | 0.65 | 0.65 | 95 | 1043.5 |
| 20260506022033 | 45 | 24 | 3.0 | 4.0 | 0.05 | 0.65 | 0.65 | 95 | 1043.2 |
| 20260506021534 | 45 | 28 | 3.0 | 4.0 | 0.05 | 0.65 | 0.65 | 95 | 1043.0 |
| 20260506021034 | 45 | 349 | 4.0 | 5.0 | 0.06 | 0.65 | 0.65 | 95 | 1042.9 |
| 20260506020535 | 45 | 323 | 3.0 | 4.0 | 0.05 | 0.64 | 0.64 | 95 | 1042.9 |
| 20260506020054 | 45 | 25 | 2.0 | 4.0 | 0.07 | 0.64 | 0.64 | 95 | 1042.6 |
| 20260506015534 | 45 | 23 | 3.0 | 4.0 | 0.08 | 0.64 | 0.64 | 95 | 1042.5 |
| 20260506015034 | 45 | 22 | 3.0 | 4.0 | 0.08 | 0.63 | 0.63 | 95 | 1042.4 |
| 20260506014535 | 45 | 18 | 4.0 | 5.0 | 0.09 | 0.62 | 0.62 | 95 | 1042.2 |
| 20260506014034 | 45 | 3 | 2.0 | 4.0 | 0.09 | 0.62 | 0.62 | 95 | 1042.1 |
| 20260506013602 | 45 | 359 | 3.0 | 6.0 | 0.09 | 0.61 | 0.61 | 95 | 1041.2 |
| 20260506013055 | 45 | 22 | 4.0 | 5.0 | 0.10 | 0.61 | 0.61 | 95 | 1041.8 |
| 20260506012535 | 45 | 17 | 3.0 | 5.0 | 0.09 | 0.60 | 0.60 | 95 | 1041.8 |
| 20260506012022 | 45 | 15 | 3.0 | 5.0 | 0.09 | 0.60 | 0.60 | 95 | 1041.6 |
| 20260506011536 | 45 | 2 | 3.0 | 4.0 | 0.09 | 0.60 | 0.60 | 95 | 1041.2 |
| 20260506011034 | 45 | 333 | 3.0 | 4.0 | 0.08 | 0.59 | 0.59 | 95 | 1041.1 |
| 20260506010536 | 45 | 345 | 3.0 | 5.0 | 0.08 | 0.59 | 0.59 | 95 | 1041.0 |
| 20260506010056 | 46 | 5 | 4.0 | 5.0 | 0.06 | 0.57 | 0.57 | 95 | 1041.0 |
| 20260506005523 | 46 | 9 | 4.0 | 6.0 | 0.05 | 0.56 | 0.56 | 95 | 1040.7 |
| 20260506005055 | 46 | 10 | 4.0 | 5.0 | 0.04 | 0.55 | 0.55 | 95 | 1040.6 |
| 20260506004520 | 46 | 290 | 3.0 | 3.0 | 0.03 | 0.53 | 0.53 | 95 | 1040.7 |
| 20260506004020 | 46 | 1 | 2.0 | 3.0 | 0.02 | 0.52 | 0.52 | 95 | 1040.2 |
| 20260506003540 | 46 | 339 | 2.0 | 3.0 | 0.02 | 0.52 | 0.52 | 95 | 1040.1 |
| 20260506003040 | 46 | 309 | 2.0 | 3.0 | 0.01 | 0.51 | 0.51 | 95 | 1039.9 |
| 20260506002520 | 46 | 346 | 2.0 | 3.0 | 0.01 | 0.51 | 0.51 | 95 | 1040.0 |
| 20260506002019 | 46 | 288 | 2.0 | 3.0 | 0.04 | 0.51 | 0.51 | 95 | 1039.7 |
| 20260506001522 | 46 | 323 | 2.0 | 3.0 | 0.07 | 0.51 | 0.51 | 95 | 1039.6 |
| 20260506001035 | 46 | 5 | 3.0 | 3.0 | 0.08 | 0.51 | 0.51 | 95 | 1039.4 |
| 20260506000536 | 47 | 4 | 3.0 | 3.0 | 0.09 | 0.51 | 0.51 | 95 | 1039.4 |
| 20260506000037 | 47 | 345 | 3.0 | 4.0 | 0.09 | 0.51 | 0.51 | 95 | 1039.5 |
| 20260505235536 | 47 | 8 | 2.0 | 3.0 | 0.09 | 0.51 | 0.51 | 95 | 1039.5 |
| 20260505235037 | 47 | 306 | 2.0 | 3.0 | 0.09 | 0.50 | 0.50 | 94 | 1039.7 |
| 20260505234536 | 47 | 12 | 2.0 | 3.0 | 0.08 | 0.50 | 0.50 | 94 | 1040.0 |
| 20260505234058 | 47 | 14 | 3.0 | 3.0 | 0.08 | 0.50 | 0.50 | 94 | 1040.5 |
| 20260505233601 | 47 | 11 | 3.0 | 3.0 | 0.08 | 0.50 | 0.50 | 94 | 1040.7 |
| 20260505233025 | 47 | 15 | 4.0 | 6.0 | 0.09 | 0.50 | 0.50 | 94 | 1041.8 |
| 20260505232521 | 47 | 303 | 4.0 | 5.0 | 0.09 | 0.50 | 0.50 | 94 | 1042.6 |
| 20260505232024 | 48 | 39 | 4.0 | 7.0 | 0.06 | 0.47 | 0.47 | 93 | 1043.3 |
| 20260505231524 | 48 | 355 | 2.0 | 5.0 | 0.03 | 0.44 | 0.44 | 93 | 1044.0 |
| 20260505231023 | 48 | 347 | 4.0 | 5.0 | 0.02 | 0.43 | 0.43 | 93 | 1044.3 |
| 20260505230522 | 48 | 343 | 3.0 | 4.0 | 0.01 | 0.42 | 0.42 | 92 | 1044.8 |
| 20260505225521 | 48 | 352 | 4.0 | 5.0 | 0.01 | 0.42 | 0.42 | 92 | 1045.6 |
| 20260505225023 | 48 | 337 | 3.0 | 4.0 | 0.01 | 0.42 | 0.42 | 92 | 1046.1 |
| 20260505224523 | 48 | 326 | 3.0 | 5.0 | 0.01 | 0.42 | 0.42 | 91 | 1046.1 |
| 20260505224043 | 48 | 347 | 4.0 | 5.0 | 0.01 | 0.42 | 0.42 | 91 | 1045.9 |
| 20260505223523 | 48 | 328 | 4.0 | 5.0 | 0.01 | 0.42 | 0.42 | 91 | 1045.1 |
| 20260505223025 | 48 | 6 | 4.0 | 5.0 | 0.00 | 0.41 | 0.41 | 90 | 1045.2 |
| 20260505222523 | 48 | 2 | 4.0 | 5.0 | 0.00 | 0.41 | 0.41 | 90 | 1045.4 |
| 20260505222022 | 48 | 11 | 4.0 | 4.0 | 0.00 | 0.41 | 0.41 | 91 | 1045.4 |
| 20260505221522 | 48 | 7 | 4.0 | 5.0 | 0.00 | 0.41 | 0.41 | 91 | 1045.3 |
| 20260505221023 | 48 | 1 | 4.0 | 4.0 | 0.00 | 0.41 | 0.41 | 91 | 1045.2 |
| 20260505220523 | 48 | 332 | 4.0 | 5.0 | 0.00 | 0.41 | 0.41 | 91 | 1045.1 |
| 20260505220024 | 48 | 347 | 4.0 | 5.0 | 0.00 | 0.41 | 0.41 | 91 | 1045.1 |
| 20260505215526 | 48 | 353 | 4.0 | 5.0 | 0.00 | 0.41 | 0.41 | 91 | 1045.0 |
| 20260505215022 | 48 | 358 | 4.0 | 5.0 | 0.00 | 0.41 | 0.41 | 91 | 1045.0 |
| 20260505214523 | 48 | 346 | 4.0 | 4.0 | 0.01 | 0.41 | 0.41 | 91 | 1045.0 |
| 20260505214043 | 48 | 320 | 4.0 | 5.0 | 0.01 | 0.41 | 0.41 | 91 | 1044.9 |
| 20260505213523 | 48 | 326 | 4.0 | 5.0 | 0.01 | 0.41 | 0.41 | 91 | 1044.7 |
| 20260505213024 | 48 | 298 | 3.0 | 4.0 | 0.01 | 0.41 | 0.41 | 91 | 1044.8 |
| 20260505212523 | 48 | 342 | 4.0 | 5.0 | 0.01 | 0.41 | 0.41 | 91 | 1044.8 |
| 20260505212025 | 48 | 8 | 4.0 | 5.0 | 0.01 | 0.41 | 0.41 | 91 | 1045.1 |
| 20260505211523 | 48 | 360 | 4.0 | 5.0 | 0.01 | 0.41 | 0.41 | 90 | 1045.3 |
| 20260505211023 | 48 | 355 | 4.0 | 5.0 | 0.02 | 0.41 | 0.41 | 90 | 1045.5 |
| 20260505210523 | 48 | 349 | 4.0 | 4.0 | 0.02 | 0.41 | 0.41 | 90 | 1045.7 |
| 20260505210024 | 49 | 353 | 4.0 | 4.0 | 0.02 | 0.41 | 0.41 | 90 | 1045.5 |
| 20260505205525 | 49 | 318 | 4.0 | 5.0 | 0.02 | 0.41 | 0.41 | 90 | 1044.9 |
| 20260505205026 | 49 | 7 | 4.0 | 5.0 | 0.02 | 0.41 | 0.41 | 89 | 1044.0 |
| 20260505204543 | 49 | 6 | 3.0 | 4.0 | 0.01 | 0.40 | 0.40 | 87 | 1042.8 |
| 20260505204104 | 49 | 8 | 3.0 | 4.0 | 0.01 | 0.40 | 0.40 | 87 | 1042.3 |
| 20260505203525 | 49 | 351 | 3.0 | 4.0 | 0.01 | 0.40 | 0.40 | 86 | 1041.9 |
| 20260505203023 | 49 | 0 | 3.0 | 4.0 | 0.01 | 0.40 | 0.40 | 86 | 1041.3 |
| 20260505202523 | 49 | 14 | 4.0 | 4.0 | 0.01 | 0.40 | 0.40 | 86 | 1041.1 |
| 20260505202025 | 49 | 356 | 4.0 | 4.0 | 0.01 | 0.40 | 0.40 | 86 | 1040.0 |
| 20260505201527 | 49 | 12 | 4.0 | 5.0 | 0.01 | 0.40 | 0.40 | 85 | 1039.2 |
| 20260505201044 | 49 | 2 | 4.0 | 5.0 | 0.00 | 0.39 | 0.39 | 85 | 1038.9 |
| 20260505200524 | 50 | 359 | 3.0 | 4.0 | 0.00 | 0.39 | 0.39 | 84 | 1036.8 |
| 20260505200024 | 50 | 351 | 3.0 | 5.0 | 0.00 | 0.39 | 0.39 | 82 | 1034.2 |
| 20260505195525 | 50 | 6 | 4.0 | 5.0 | 0.00 | 0.39 | 0.39 | 81 | 1034.0 |
| 20260505195025 | 50 | 4 | 4.0 | 5.0 | 0.00 | 0.39 | 0.39 | 82 | 1035.5 |
| 20260505194525 | 50 | 4 | 4.0 | 5.0 | 0.00 | 0.39 | 0.39 | 82 | 1035.6 |
| 20260505194024 | 51 | 351 | 4.0 | 4.0 | 0.00 | 0.39 | 0.39 | 82 | 1034.5 |
| 20260505193525 | 51 | 359 | 4.0 | 5.0 | 0.00 | 0.39 | 0.39 | 81 | 1033.9 |
| 20260505193025 | 51 | 347 | 4.0 | 5.0 | 0.00 | 0.39 | 0.39 | 81 | 1033.6 |
| 20260505192526 | 52 | 348 | 4.0 | 5.0 | 0.00 | 0.39 | 0.39 | 81 | 1033.9 |
| 20260505192025 | 52 | 355 | 4.0 | 5.0 | 0.00 | 0.39 | 0.39 | 81 | 1033.4 |
| 20260505191522 | 52 | 350 | 4.0 | 5.0 | 0.00 | 0.39 | 0.39 | 80 | 1032.4 |
| 20260505191022 | 52 | 353 | 4.0 | 6.0 | 0.00 | 0.39 | 0.39 | 81 | 1033.2 |
| 20260505190546 | 52 | 349 | 4.0 | 5.0 | 0.00 | 0.39 | 0.39 | 81 | 1032.7 |
| 20260505190022 | 52 | 358 | 4.0 | 6.0 | 0.00 | 0.39 | 0.39 | 80 | 1031.7 |
| 20260505185522 | 52 | 350 | 4.0 | 5.0 | 0.00 | 0.40 | 0.39 | 81 | 1033.6 |
| 20260505185026 | 52 | 340 | 4.0 | 5.0 | 0.00 | 0.42 | 0.39 | 82 | 1034.6 |
| 20260505184525 | 52 | 325 | 4.0 | 5.0 | 0.00 | 0.42 | 0.39 | 81 | 1034.0 |
| 20260505184023 | 52 | 0 | 4.0 | 6.0 | 0.00 | 0.50 | 0.39 | 82 | 1035.2 |
| 20260505183522 | 52 | 4 | 4.0 | 5.0 | 0.00 | 0.53 | 0.39 | 82 | 1035.3 |
| 20260505183023 | 52 | 358 | 4.0 | 5.0 | 0.00 | 0.58 | 0.39 | 82 | 1035.4 |
| 20260505182522 | 52 | 352 | 4.0 | 5.0 | 0.00 | 0.78 | 0.39 | 83 | 1036.4 |
| 20260505182027 | 52 | 12 | 4.0 | 5.0 | 0.00 | 0.87 | 0.39 | 82 | 1035.4 |
| 20260505181526 | 52 | 343 | 4.0 | 5.0 | 0.00 | 0.87 | 0.39 | 82 | 1035.6 |
| 20260505181026 | 52 | 4 | 4.0 | 5.0 | 0.00 | 0.87 | 0.39 | 83 | 1036.4 |
| 20260505180527 | 53 | 306 | 3.0 | 4.0 | 0.00 | 0.87 | 0.39 | 82 | 1035.2 |
| 20260505180026 | 53 | 345 | 4.0 | 4.0 | 0.00 | 0.87 | 0.39 | 81 | 1034.8 |
| 20260505175607 | 53 | 356 | 4.0 | 5.0 | 0.01 | 0.87 | 0.39 | 82 | 1036.9 |
| 20260505175027 | 53 | 338 | 4.0 | 5.0 | 0.01 | 0.87 | 0.39 | 83 | 1036.6 |
| 20260505174527 | 53 | 351 | 4.0 | 4.0 | 0.01 | 0.87 | 0.39 | 82 | 1036.2 |
| 20260505174027 | 53 | 336 | 3.0 | 4.0 | 0.01 | 0.87 | 0.39 | 81 | 1034.8 |
| 20260505173527 | 54 | 313 | 4.0 | 4.0 | 0.01 | 0.87 | 0.39 | 80 | 1032.7 |
| 20260505173027 | 54 | 336 | 4.0 | 4.0 | 0.01 | 0.87 | 0.39 | 81 | 1034.2 |
| 20260505172547 | 54 | 332 | 3.0 | 5.0 | 0.01 | 0.87 | 0.39 | 81 | 1033.9 |
| 20260505172027 | 54 | 347 | 3.0 | 4.0 | 0.01 | 0.87 | 0.39 | 80 | 1032.7 |
| 20260505171527 | 54 | 238 | 3.0 | 4.0 | 0.01 | 0.87 | 0.39 | 79 | 1031.8 |
| 20260505171028 | 55 | 348 | 3.0 | 4.0 | 0.01 | 0.87 | 0.39 | 78 | 1029.7 |
| 20260505170528 | 55 | 357 | 4.0 | 5.0 | 0.01 | 0.88 | 0.39 | 78 | 1029.8 |
| 20260505170028 | 55 | 357 | 4.0 | 5.0 | 0.01 | 0.88 | 0.39 | 77 | 1028.5 |
| 20260505165546 | 55 | 6 | 5.0 | 6.0 | 0.00 | 0.88 | 0.38 | 75 | 1027.9 |
| 20260505165047 | 55 | 9 | 4.0 | 5.0 | 0.00 | 0.88 | 0.38 | 74 | 1028.1 |
| 20260505164527 | 55 | 261 | 3.0 | 5.0 | 0.00 | 0.88 | 0.38 | 74 | 1028.3 |
| 20260505164105 | 55 | 283 | 4.0 | 5.0 | 0.00 | 0.88 | 0.38 | 74 | 1028.3 |